Location: Ciserano
(45.5833°N, 9.6000°E)
Time: 12:40:10
(UTC+00:00)

ATLAS CENTAUR R/B - Pass Details

Date: 29 November 2020
Orbit: 477 x 668 km, 64.7° (Epoch: 12 January)

Event Time Altitude Azimuth Distance (km) Brightness Sun altitude
Exits shadow 04:32:33 40° 5° (N) 751 1.9 -21.6°
Maximum altitude 04:33:28 51° 50° (NE) 643 1.8 -21.4°
Drops below altitude 10° 04:37:17 10° 127° (SE) 1,760 4.8 -20.8°
Sets 04:39:34 0° 133° (SE) 2,678 5.8 -20.4°
